#Datum;Uhrzeit;WR;Pac;DaySum;Status;WR;Pac;DaySum;Status;Pdc1;Udc;Temp;WR;Pac;DaySum;Status;Pdc1;Udc;Temp;WR;Pac;DaySum;Status;Pdc1;Udc;Temp;WR;Pac;DaySum;Status;Pdc1;Pdc2;Udc1;Udc2;Temp;WR;Pac;DaySum;Status;Pdc1;Pdc2;Udc1;Udc2;Temp;WR;Pac;DaySum;Status;Pdc1;Udc;Temp;WR;Pac;DaySum;Status;Pdc1;Udc;Temp;WR;Pac;DaySum;Status;Pdc1;Udc;Temp
04.03.19;23:55:00;1;250;8477;0;2;0;12134;0;0;0;0;3;0;8197;0;0;0;0;4;0;13053;0;0;0;0;5;0;37764;0;0;0;0;0;0;6;0;28807;0;0;0;0;0;0;7;0;20525;0;0;0;0;8;0;20134;0;0;0;0;9;0;11257;0;0;0;0
04.03.19;23:50:00;1;313;8455;0;2;0;12134;0;0;0;0;3;0;8197;0;0;0;0;4;0;13053;0;0;0;0;5;0;37764;0;0;0;0;0;0;6;0;28807;0;0;0;0;0;0;7;0;20525;0;0;0;0;8;0;20134;0;0;0;0;9;0;11257;0;0;0;0
04.03.19;23:45:00;1;301;8429;0;2;0;12134;0;0;0;0;3;0;8197;0;0;0;0;4;0;13053;0;0;0;0;5;0;37764;0;0;0;0;0;0;6;0;28807;0;0;0;0;0;0;7;0;20525;0;0;0;0;8;0;20134;0;0;0;0;9;0;11257;0;0;0;0
04.03.19;23:40:00;1;272;8404;0;2;0;12134;0;0;0;0;3;0;8197;0;0;0;0;4;0;13053;0;0;0;0;5;0;37764;0;0;0;0;0;0;6;0;28807;0;0;0;0;0;0;7;0;20525;0;0;0;0;8;0;20134;0;0;0;0;9;0;11257;0;0;0;0
04.03.19;23:35:00;1;274;8381;0;2;0;12134;0;0;0;0;3;0;8197;0;0;0;0;4;0;13053;0;0;0;0;5;0;37764;0;0;0;0;0;0;6;0;28807;0;0;0;0;0;0;7;0;20525;0;0;0;0;8;0;20134;0;0;0;0;9;0;11257;0;0;0;0
04.03.19;23:30:00;1;275;8358;0;2;0;12134;0;0;0;0;3;0;8197;0;0;0;0;4;0;13053;0;0;0;0;5;0;37764;0;0;0;0;0;0;6;0;28807;0;0;0;0;0;0;7;0;20525;0;0;0;0;8;0;20134;0;0;0;0;9;0;11257;0;0;0;0
04.03.19;23:25:00;1;279;8335;0;2;0;12134;0;0;0;0;3;0;8197;0;0;0;0;4;0;13053;0;0;0;0;5;0;37764;0;0;0;0;0;0;6;0;28807;0;0;0;0;0;0;7;0;20525;0;0;0;0;8;0;20134;0;0;0;0;9;0;11257;0;0;0;0
04.03.19;23:20:00;1;278;8312;0;2;0;12134;0;0;0;0;3;0;8197;0;0;0;0;4;0;13053;0;0;0;0;5;0;37764;0;0;0;0;0;0;6;0;28807;0;0;0;0;0;0;7;0;20525;0;0;0;0;8;0;20134;0;0;0;0;9;0;11257;0;0;0;0
04.03.19;23:15:00;1;310;8288;0;2;0;12134;0;0;0;0;3;0;8197;0;0;0;0;4;0;13053;0;0;0;0;5;0;37764;0;0;0;0;0;0;6;0;28807;0;0;0;0;0;0;7;0;20525;0;0;0;0;8;0;20134;0;0;0;0;9;0;11257;0;0;0;0
04.03.19;23:10:00;1;215;8266;0;2;0;12134;0;0;0;0;3;0;8197;0;0;0;0;4;0;13053;0;0;0;0;5;0;37764;0;0;0;0;0;0;6;0;28807;0;0;0;0;0;0;7;0;20525;0;0;0;0;8;0;20134;0;0;0;0;9;0;11257;0;0;0;0
04.03.19;23:05:00;1;247;8248;0;2;0;12134;0;0;0;0;3;0;8197;0;0;0;0;4;0;13053;0;0;0;0;5;0;37764;0;0;0;0;0;0;6;0;28807;0;0;0;0;0;0;7;0;20525;0;0;0;0;8;0;20134;0;0;0;0;9;0;11257;0;0;0;0
04.03.19;23:00:00;1;259;8227;0;2;0;12134;0;0;0;0;3;0;8197;0;0;0;0;4;0;13053;0;0;0;0;5;0;37764;0;0;0;0;0;0;6;0;28807;0;0;0;0;0;0;7;0;20525;0;0;0;0;8;0;20134;0;0;0;0;9;0;11257;0;0;0;0
04.03.19;22:55:00;1;262;8206;0;2;0;12134;0;0;0;0;3;0;8197;0;0;0;0;4;0;13053;0;0;0;0;5;0;37764;2;0;0;0;0;0;6;0;28807;2;0;0;0;0;0;7;0;20525;0;0;0;0;8;0;20134;0;0;0;0;9;0;11257;0;0;0;0
04.03.19;22:50:00;1;226;8184;0;2;0;12134;0;0;0;0;3;0;8197;0;0;0;0;4;0;13053;0;0;0;0;5;0;37764;2;0;0;0;0;0;6;0;28807;2;0;0;0;0;0;7;0;20525;0;0;0;0;8;0;20134;0;0;0;0;9;0;11257;0;0;0;0
04.03.19;22:45:00;1;219;8165;0;2;0;12134;0;0;0;0;3;0;8197;0;0;0;0;4;0;13053;0;0;0;0;5;0;37764;2;0;0;0;0;0;6;0;28807;2;0;0;0;0;0;7;0;20525;0;0;0;0;8;0;20134;0;0;0;0;9;0;11257;0;0;0;0
04.03.19;22:40:00;1;220;8146;0;2;0;12134;0;0;0;0;3;0;8197;0;0;0;0;4;0;13053;0;0;0;0;5;0;37764;2;0;0;0;0;0;6;0;28807;2;0;0;0;0;0;7;0;20525;0;0;0;0;8;0;20134;0;0;0;0;9;0;11257;0;0;0;0
04.03.19;22:35:00;1;220;8128;0;2;0;12134;0;0;0;0;3;0;8197;0;0;0;0;4;0;13053;0;0;0;0;5;0;37764;2;0;0;0;0;0;6;0;28807;2;0;0;0;0;0;7;0;20525;0;0;0;0;8;0;20134;0;0;0;0;9;0;11257;0;0;0;0
04.03.19;22:30:00;1;221;8109;0;2;0;12134;0;0;0;0;3;0;8197;0;0;0;0;4;0;13053;0;0;0;0;5;0;37764;2;0;0;0;0;0;6;0;28807;2;0;0;0;0;0;7;0;20525;0;0;0;0;8;0;20134;0;0;0;0;9;0;11257;0;0;0;0
04.03.19;22:25:00;1;220;8091;0;2;0;12134;0;0;0;0;3;0;8197;0;0;0;0;4;0;13053;0;0;0;0;5;0;37764;2;0;0;0;0;0;6;0;28807;2;0;0;0;0;0;7;0;20525;0;0;0;0;8;0;20134;0;0;0;0;9;0;11257;0;0;0;0
04.03.19;22:20:00;1;220;8072;0;2;0;12134;0;0;0;0;3;0;8197;0;0;0;0;4;0;13053;0;0;0;0;5;0;37764;2;0;0;0;0;0;6;0;28807;2;0;0;0;0;0;7;0;20525;0;0;0;0;8;0;20134;0;0;0;0;9;0;11257;0;0;0;0
04.03.19;22:15:00;1;220;8054;0;2;0;12134;0;0;0;0;3;0;8197;0;0;0;0;4;0;13053;0;0;0;0;5;0;37764;2;0;0;0;0;0;6;0;28807;2;0;0;0;0;0;7;0;20525;0;0;0;0;8;0;20134;0;0;0;0;9;0;11257;0;0;0;0
04.03.19;22:10:00;1;264;8035;0;2;0;12134;0;0;0;0;3;0;8197;0;0;0;0;4;0;13053;0;0;0;0;5;0;37764;2;0;0;0;0;0;6;0;28807;2;0;0;0;0;0;7;0;20525;0;0;0;0;8;0;20134;0;0;0;0;9;0;11257;0;0;0;0
04.03.19;22:05:00;1;290;8013;0;2;0;12134;0;0;0;0;3;0;8197;0;0;0;0;4;0;13053;0;0;0;0;5;0;37764;2;0;0;0;0;0;6;0;28807;2;0;0;0;0;0;7;0;20525;0;0;0;0;8;0;20134;0;0;0;0;9;0;11257;0;0;0;0
04.03.19;22:00:00;1;292;7989;0;2;0;12134;0;0;0;0;3;0;8197;0;0;0;0;4;0;13053;0;0;0;0;5;0;37764;2;0;0;0;0;0;6;0;28807;2;0;0;0;0;0;7;0;20525;0;0;0;0;8;0;20134;0;0;0;0;9;0;11257;0;0;0;0
04.03.19;21:55:00;1;254;7965;0;2;0;12134;0;0;0;0;3;0;8197;0;0;0;0;4;0;13053;0;0;0;0;5;0;37764;2;0;0;0;0;0;6;0;28807;2;0;0;0;0;0;7;0;20525;0;0;0;0;8;0;20134;0;0;0;0;9;0;11257;0;0;0;0
04.03.19;21:50:00;1;315;7944;0;2;0;12134;0;0;0;0;3;0;8197;0;0;0;0;4;0;13053;0;0;0;0;5;0;37764;2;0;0;0;0;0;6;0;28807;2;0;0;0;0;0;7;0;20525;0;0;0;0;8;0;20134;0;0;0;0;9;0;11257;0;0;0;0
04.03.19;21:45:00;1;345;7916;0;2;0;12134;0;0;0;0;3;0;8197;0;0;0;0;4;0;13053;0;0;0;0;5;0;37764;2;0;0;0;0;0;6;0;28807;2;0;0;0;0;0;7;0;20525;0;0;0;0;8;0;20134;0;0;0;0;9;0;11257;0;0;0;0
04.03.19;21:40:00;1;473;7888;0;2;0;12134;0;0;0;0;3;0;8197;0;0;0;0;4;0;13053;0;0;0;0;5;0;37764;2;0;0;0;0;0;6;0;28807;2;0;0;0;0;0;7;0;20525;0;0;0;0;8;0;20134;0;0;0;0;9;0;11257;0;0;0;0
04.03.19;21:35:00;1;475;7850;0;2;0;12134;0;0;0;0;3;0;8197;0;0;0;0;4;0;13053;0;0;0;0;5;0;37764;2;0;0;0;0;0;6;0;28807;2;0;0;0;0;0;7;0;20525;0;0;0;0;8;0;20134;0;0;0;0;9;0;11257;0;0;0;0
04.03.19;21:30:00;1;480;7810;0;2;0;12134;0;0;0;0;3;0;8197;0;0;0;0;4;0;13053;0;0;0;0;5;0;37764;2;0;0;0;0;0;6;0;28807;2;0;0;0;0;0;7;0;20525;0;0;0;0;8;0;20134;0;0;0;0;9;0;11257;0;0;0;0
04.03.19;21:25:00;1;482;7770;0;2;0;12134;0;0;0;0;3;0;8197;0;0;0;0;4;0;13053;0;0;0;0;5;0;37764;2;0;0;0;0;0;6;0;28807;2;0;0;0;0;0;7;0;20525;0;0;0;0;8;0;20134;0;0;0;0;9;0;11257;0;0;0;0
04.03.19;21:20:00;1;511;7729;0;2;0;12134;0;0;0;0;3;0;8197;0;0;0;0;4;0;13053;0;0;0;0;5;0;37764;2;0;0;0;0;0;6;0;28807;2;0;0;0;0;0;7;0;20525;0;0;0;0;8;0;20134;0;0;0;0;9;0;11257;0;0;0;0
04.03.19;21:15:00;1;536;7687;0;2;0;12134;0;0;0;0;3;0;8197;0;0;0;0;4;0;13053;0;0;0;0;5;0;37764;2;0;0;0;0;0;6;0;28807;2;0;0;0;0;0;7;0;20525;0;0;0;0;8;0;20134;0;0;0;0;9;0;11257;0;0;0;0
04.03.19;21:10:00;1;541;7642;0;2;0;12134;0;0;0;0;3;0;8197;0;0;0;0;4;0;13053;0;0;0;0;5;0;37764;2;0;0;0;0;0;6;0;28807;2;0;0;0;0;0;7;0;20525;0;0;0;0;8;0;20134;0;0;0;0;9;0;11257;0;0;0;0
04.03.19;21:05:00;1;450;7597;0;2;0;12134;0;0;0;0;3;0;8197;0;0;0;0;4;0;13053;0;0;0;0;5;0;37764;2;0;0;0;0;0;6;0;28807;2;0;0;0;0;0;7;0;20525;0;0;0;0;8;0;20134;0;0;0;0;9;0;11257;0;0;0;0
04.03.19;21:00:00;1;409;7558;0;2;0;12134;0;0;0;0;3;0;8197;0;0;0;0;4;0;13053;0;0;0;0;5;0;37764;2;0;0;0;0;0;6;0;28807;2;0;0;0;0;0;7;0;20525;0;0;0;0;8;0;20134;0;0;0;0;9;0;11257;0;0;0;0
04.03.19;20:55:00;1;409;7524;0;2;0;12134;0;0;0;0;3;0;8197;0;0;0;0;4;0;13053;0;0;0;0;5;0;37764;2;0;0;0;0;0;6;0;28807;2;0;0;0;0;0;7;0;20525;0;0;0;0;8;0;20134;0;0;0;0;9;0;11257;0;0;0;0
04.03.19;20:50:00;1;422;7489;0;2;0;12134;0;0;0;0;3;0;8197;0;0;0;0;4;0;13053;0;0;0;0;5;0;37764;2;0;0;0;0;0;6;0;28807;2;0;0;0;0;0;7;0;20525;0;0;0;0;8;0;20134;0;0;0;0;9;0;11257;0;0;0;0
04.03.19;20:45:00;1;423;7455;0;2;0;12134;0;0;0;0;3;0;8197;0;0;0;0;4;0;13053;0;0;0;0;5;0;37764;2;0;0;0;0;0;6;0;28807;2;0;0;0;0;0;7;0;20525;0;0;0;0;8;0;20134;0;0;0;0;9;0;11257;0;0;0;0
04.03.19;20:40:00;1;987;7419;0;2;0;12134;0;0;0;0;3;0;8197;0;0;0;0;4;0;13053;0;0;0;0;5;0;37764;2;0;0;0;0;0;6;0;28807;2;0;0;0;0;0;7;0;20525;0;0;0;0;8;0;20134;0;0;0;0;9;0;11257;0;0;0;0
04.03.19;20:35:00;1;463;7332;0;2;0;12134;0;0;0;0;3;0;8197;0;0;0;0;4;0;13053;0;0;0;0;5;0;37764;2;0;0;0;0;0;6;0;28807;2;0;0;0;0;0;7;0;20525;0;0;0;0;8;0;20134;0;0;0;0;9;0;11257;0;0;0;0
04.03.19;20:30:00;1;484;7293;0;2;0;12134;0;0;0;0;3;0;8197;0;0;0;0;4;0;13053;0;0;0;0;5;0;37764;2;0;0;0;0;0;6;0;28807;2;0;0;0;0;0;7;0;20525;0;0;0;0;8;0;20134;0;0;0;0;9;0;11257;0;0;0;0
04.03.19;20:25:00;1;493;7253;0;2;0;12134;0;0;0;0;3;0;8197;0;0;0;0;4;0;13053;0;0;0;0;5;0;37764;2;0;0;0;0;0;6;0;28807;2;0;0;0;0;0;7;0;20525;0;0;0;0;8;0;20134;0;0;0;0;9;0;11257;0;0;0;0
04.03.19;20:21:00;1;504;7220;0;2;0;12134;0;0;0;0;3;0;8197;0;0;0;0;4;0;13053;0;0;0;0;5;0;37764;2;0;0;0;0;0;6;0;28807;2;0;0;0;0;0;7;0;20525;0;0;0;0;8;0;20134;0;0;0;0;9;0;11257;0;0;0;0
04.03.19;20:15:00;1;375;7168;0;2;0;12134;0;0;0;0;3;0;8197;0;0;0;0;4;0;13053;0;0;0;0;5;0;37764;2;0;0;0;0;0;6;0;28807;2;0;0;0;0;0;7;0;20525;0;0;0;0;8;0;20134;0;0;0;0;9;0;11257;0;0;0;0
04.03.19;20:10:00;1;361;7135;0;2;0;12134;0;0;0;0;3;0;8197;0;0;0;0;4;0;13053;0;0;0;0;5;0;37764;2;0;0;0;0;0;6;0;28807;2;0;0;0;0;0;7;0;20525;0;0;0;0;8;0;20134;0;0;0;0;9;0;11257;0;0;0;0
04.03.19;20:05:00;1;426;7101;0;2;0;12134;0;0;0;0;3;0;8197;0;0;0;0;4;0;13053;0;0;0;0;5;0;37764;2;0;0;0;0;0;6;0;28807;2;0;0;0;0;0;7;0;20525;0;0;0;0;8;0;20134;0;0;0;0;9;0;11257;0;0;0;0
04.03.19;20:00:00;1;453;7066;0;2;0;12134;0;0;0;0;3;0;8197;0;0;0;0;4;0;13053;0;0;0;0;5;0;37764;2;0;0;0;0;0;6;0;28807;2;0;0;0;0;0;7;0;20525;0;0;0;0;8;0;20134;0;0;0;0;9;0;11257;0;0;0;0
04.03.19;19:55:00;1;456;7028;0;2;0;12134;0;0;0;0;3;0;8197;0;0;0;0;4;0;13053;0;0;0;0;5;0;37764;2;0;0;0;0;0;6;0;28807;2;0;0;0;0;0;7;0;20525;0;0;0;0;8;0;20134;0;0;0;0;9;0;11257;0;0;0;0
04.03.19;19:50:00;1;435;6989;0;2;0;12134;0;0;0;0;3;0;8197;0;0;0;0;4;0;13053;0;0;0;0;5;0;37764;2;0;0;0;0;0;6;0;28807;2;0;0;0;0;0;7;0;20525;0;0;0;0;8;0;20134;0;0;0;0;9;0;11257;0;0;0;0
04.03.19;19:45:00;1;439;6953;0;2;0;12134;0;0;0;0;3;0;8197;0;0;0;0;4;0;13053;0;0;0;0;5;0;37764;2;0;0;0;0;0;6;0;28807;2;0;0;0;0;0;7;0;20525;0;0;0;0;8;0;20134;0;0;0;0;9;0;11257;0;0;0;0
04.03.19;19:40:00;1;426;6917;0;2;0;12134;0;0;0;0;3;0;8197;0;0;0;0;4;0;13053;0;0;0;0;5;0;37764;2;0;0;0;0;0;6;0;28807;2;0;0;0;0;0;7;0;20525;0;0;0;0;8;0;20134;0;0;0;0;9;0;11257;0;0;0;0
04.03.19;19:35:00;1;423;6881;0;2;0;12134;0;0;0;0;3;0;8197;0;0;0;0;4;0;13053;0;0;0;0;5;0;37764;2;0;0;0;0;0;6;0;28807;2;0;0;0;0;0;7;0;20525;0;0;0;0;8;0;20134;0;0;0;0;9;0;11257;0;0;0;0
04.03.19;19:30:00;1;447;6845;0;2;0;12134;0;0;0;0;3;0;8197;0;0;0;0;4;0;13053;0;0;0;0;5;0;37764;2;0;0;0;0;0;6;0;28807;2;0;0;0;0;0;7;0;20525;0;0;0;0;8;0;20134;0;0;0;0;9;0;11257;0;0;0;0
04.03.19;19:25:00;1;386;6807;0;2;0;12134;0;0;0;0;3;0;8197;0;0;0;0;4;0;13053;0;0;0;0;5;0;37764;2;0;0;0;0;0;6;0;28807;2;0;0;0;0;0;7;0;20525;0;0;0;0;8;0;20134;0;0;0;0;9;0;11257;0;0;0;0
04.03.19;19:20:00;1;371;6776;0;2;0;12134;0;0;0;0;3;0;8197;0;0;0;0;4;0;13053;0;0;0;0;5;0;37764;2;0;0;0;0;0;6;0;28807;2;0;0;0;0;0;7;0;20525;0;0;0;0;8;0;20134;0;0;0;0;9;0;11257;0;0;0;0
04.03.19;19:15:00;1;330;6745;0;2;0;12134;0;0;0;0;3;0;8197;0;0;0;0;4;0;13053;0;0;0;0;5;0;37764;2;0;0;0;0;0;6;0;28807;2;0;0;0;0;0;7;0;20525;0;0;0;0;8;0;20134;0;0;0;0;9;0;11257;0;0;0;0
04.03.19;19:10:00;1;333;6717;0;2;0;12134;0;0;0;0;3;0;8197;0;0;0;0;4;0;13053;0;0;0;0;5;0;37764;2;0;0;0;0;0;6;0;28807;2;0;0;0;0;0;7;0;20525;0;0;0;0;8;0;20134;0;0;0;0;9;0;11257;0;0;0;0
04.03.19;19:05:00;1;332;6689;0;2;0;12134;0;0;0;0;3;0;8197;0;0;0;0;4;0;13053;0;0;0;0;5;0;37764;2;0;0;0;0;0;6;0;28807;2;0;0;0;0;0;7;0;20525;0;0;0;0;8;0;20134;0;0;0;0;9;0;11257;0;0;0;0
04.03.19;19:00:00;1;372;6662;0;2;0;12134;0;0;0;0;3;0;8197;0;0;0;0;4;0;13053;0;0;0;0;5;0;37764;2;0;0;0;0;0;6;0;28807;2;0;0;0;0;0;7;0;20525;0;0;0;0;8;0;20134;0;0;0;0;9;0;11257;0;0;0;0
04.03.19;18:55:00;1;369;6631;0;2;0;12134;0;0;0;0;3;0;8197;0;0;0;0;4;0;13053;0;0;0;0;5;0;37764;2;0;0;0;0;0;6;0;28807;2;0;0;0;0;0;7;0;20525;0;0;0;0;8;0;20134;0;0;0;0;9;0;11257;0;0;0;0
04.03.19;18:50:00;1;371;6600;0;2;0;12134;0;0;0;0;3;0;8197;0;0;0;0;4;0;13053;0;0;0;0;5;0;37764;2;0;0;0;0;0;6;0;28807;2;0;0;0;0;0;7;0;20525;0;0;0;0;8;0;20134;0;0;0;0;9;0;11257;0;0;0;0
04.03.19;18:45:00;1;389;6569;0;2;0;12134;0;0;0;0;3;0;8197;0;0;0;0;4;0;13053;0;0;0;0;5;0;37764;2;0;0;0;0;0;6;0;28807;2;0;0;0;0;0;7;0;20525;0;0;0;0;8;0;20134;0;0;0;0;9;0;11257;0;0;0;0
04.03.19;18:40:00;1;427;6536;0;2;0;12134;0;0;0;0;3;0;8197;0;0;0;0;4;0;13053;0;0;0;0;5;0;37764;2;0;0;0;0;0;6;0;28807;2;0;0;0;0;0;7;0;20525;0;0;0;0;8;0;20134;0;0;0;0;9;0;11257;0;0;0;0
04.03.19;18:35:00;1;931;6500;0;2;0;12134;0;0;0;0;3;0;8197;0;0;0;0;4;0;13053;0;0;0;0;5;0;37764;2;0;0;0;0;0;6;0;28807;2;0;0;0;0;0;7;0;20525;0;0;0;0;8;0;20134;0;0;0;0;9;0;11257;0;0;0;0
04.03.19;18:30:00;1;1556;6391;0;2;0;12134;0;0;0;0;3;0;8197;0;0;0;0;4;0;13053;0;0;0;0;5;0;37764;2;0;0;0;0;0;6;0;28807;2;0;0;0;0;0;7;0;20525;0;0;0;0;8;0;20134;0;0;0;0;9;0;11257;0;0;0;0
04.03.19;18:25:00;1;914;6262;0;2;0;12134;0;0;0;0;3;0;8197;0;0;0;0;4;0;13053;0;0;0;0;5;0;37764;2;0;0;0;0;0;6;0;28807;2;0;0;0;0;0;7;0;20525;0;0;0;0;8;0;20134;0;0;0;0;9;0;11257;0;0;0;0
04.03.19;18:20:00;1;1546;6174;0;2;0;12134;0;0;0;0;3;0;8197;0;0;0;0;4;0;13053;0;0;0;0;5;0;37764;2;0;0;0;0;0;6;0;28807;2;0;0;0;0;0;7;0;20525;0;0;0;0;8;0;20134;0;0;0;0;9;0;11257;0;0;0;0
04.03.19;18:15:00;1;1985;6062;0;2;0;12134;0;0;0;0;3;0;8197;0;0;0;0;4;0;13053;0;0;0;0;5;0;37764;2;0;0;0;0;0;6;0;28807;2;0;0;0;0;0;7;0;20525;0;0;0;0;8;0;20134;0;0;0;0;9;0;11257;0;0;0;0
04.03.19;18:10:00;1;949;5932;0;2;0;12134;0;0;0;0;3;0;8197;0;0;0;0;4;0;13053;0;0;0;0;5;0;37764;2;0;0;0;0;0;6;0;28807;2;0;0;0;0;0;7;0;20525;0;0;0;0;8;0;20134;0;0;0;0;9;0;11257;0;0;0;0
04.03.19;18:05:00;1;1274;5846;0;2;0;12134;0;0;35;2;3;0;8197;0;0;192;12;4;0;13053;0;0;0;0;5;0;37764;2;0;0;0;0;0;6;0;28807;2;0;0;0;0;0;7;0;20525;0;0;0;0;8;0;20134;0;0;0;0;9;0;11257;0;0;0;0
04.03.19;18:00:00;1;1395;5761;0;2;0;12134;6;0;271;16;3;0;8197;6;0;302;18;4;0;13053;0;0;0;0;5;0;37764;2;0;0;0;0;0;6;0;28807;2;0;0;0;0;0;7;0;20525;0;0;0;0;8;0;20134;0;0;0;0;9;0;11257;0;0;0;0
04.03.19;17:55:00;1;1402;5671;0;2;0;12134;6;0;315;16;3;0;8197;6;0;376;18;4;0;13053;2;0;84;15;5;0;37764;2;0;0;0;0;0;6;0;28807;2;0;0;0;0;0;7;0;20525;0;0;0;0;8;0;20134;0;0;0;0;9;0;11257;0;0;0;0
04.03.19;17:50:00;1;1228;5567;0;2;0;12134;6;0;379;16;3;1;8197;6;2;451;19;4;0;13053;1;0;167;16;5;0;37764;23;0;0;387;461;25;6;0;28807;23;8;0;180;485;23;7;0;20525;0;0;273;14;8;0;20134;0;0;259;14;9;0;11257;0;0;256;10
04.03.19;17:45:00;1;1454;5444;0;2;144;12134;4;180;355;16;3;77;8197;6;106;438;19;4;91;13053;3;95;217;16;5;17;37764;1;0;4;411;658;26;6;0;28807;1;8;1;479;574;24;7;27;20525;6;48;393;18;8;0;20134;6;1;445;18;9;0;11257;6;1;461;13
04.03.19;17:40:00;1;1781;5314;0;2;42;12122;3;49;426;16;3;51;8191;4;65;508;18;4;104;13045;5;108;223;15;5;9;37763;1;0;0;404;633;26;6;0;28807;23;11;1;260;491;24;7;23;20523;4;33;450;18;8;0;20134;6;2;420;18;9;0;11257;6;0;438;13
04.03.19;17:35:00;1;2394;5148;0;2;0;12117;6;0;382;16;3;1;8186;6;3;463;18;4;0;13037;1;0;189;15;5;8;37762;1;0;0;394;600;26;6;0;28807;23;4;6;501;241;24;7;0;20520;6;0;358;18;8;0;20134;6;0;360;18;9;0;11257;6;0;383;13
04.03.19;17:30:00;1;2297;4949;0;2;0;12117;6;0;384;16;3;1;8186;4;3;462;18;4;0;13037;1;0;196;16;5;14;37762;1;0;1;392;611;26;6;0;28807;23;14;0;232;555;25;7;0;20520;6;0;376;18;8;0;20134;6;0;382;18;9;0;11257;6;0;410;14
04.03.19;17:25:00;1;700;4759;0;2;0;12117;6;0;392;16;3;2;8186;3;6;455;18;4;0;13037;1;0;212;16;5;9;37761;1;0;1;408;645;27;6;0;28807;1;9;0;442;566;25;7;0;20520;6;0;408;18;8;0;20134;6;0;407;18;9;0;11257;6;1;434;14
04.03.19;17:20:00;1;271;4728;0;2;0;12117;6;0;398;16;3;2;8186;6;5;478;18;4;0;13037;1;0;221;16;5;41;37760;1;0;7;392;623;27;6;0;28807;1;7;0;452;572;26;7;0;20520;3;1;404;18;8;0;20134;3;4;403;18;9;0;11257;4;0;448;14
04.03.19;17:15:00;1;271;4704;0;2;0;12117;6;0;404;17;3;2;8186;6;4;494;19;4;0;13037;3;0;210;17;5;77;37757;4;4;16;372;590;28;6;0;28807;8;7;1;428;579;26;7;0;20520;6;1;432;18;8;0;20134;6;1;437;18;9;0;11256;6;2;475;14
04.03.19;17:10:00;1;273;4682;0;2;0;12117;6;0;405;17;3;3;8185;6;10;459;19;4;0;13037;3;0;212;17;5;79;37750;4;6;15;372;589;28;6;33;28807;1;18;17;524;502;27;7;0;20520;6;2;433;19;8;0;20134;6;2;422;18;9;0;11256;6;3;478;14
04.03.19;17:05:00;1;324;4655;0;2;0;12117;6;0;411;17;3;0;8185;6;5;503;19;4;0;13037;3;0;218;17;5;100;37743;4;19;23;372;589;28;6;65;28804;4;26;27;475;450;28;7;1;20520;6;8;429;19;8;0;20134;6;4;450;18;9;3;11256;6;5;469;14
04.03.19;17:00:00;1;271;4618;0;2;11;12117;3;24;395;17;3;0;8185;6;0;513;19;4;1;13037;3;1;199;18;5;125;37735;4;33;34;372;589;28;6;83;28798;4;40;40;475;450;28;7;1;20520;6;5;459;19;8;1;20134;6;5;460;19;9;0;11256;6;4;506;14
04.03.19;16:55:00;1;436;4595;0;2;45;12116;4;81;356;17;3;6;8185;3;17;500;19;4;19;13037;3;19;199;18;5;158;37724;4;50;53;372;589;28;6;106;28791;4;50;55;475;450;28;7;4;20520;6;7;476;19;8;4;20134;6;7;477;19;9;1;11256;6;5;526;14
04.03.19;16:50:00;1;331;4558;0;2;53;12112;4;86;361;17;3;11;8185;6;22;487;19;4;16;13035;3;17;199;18;5;169;37711;4;57;58;372;589;29;6;115;28782;4;56;62;475;450;28;7;7;20520;4;11;475;19;8;7;20134;3;12;477;19;9;3;11256;4;8;525;14
04.03.19;16:45:00;1;534;4524;0;2;54;12107;4;87;362;17;3;5;8184;6;9;526;18;4;11;13034;3;12;199;18;5;173;37697;4;57;57;372;590;29;6;113;28772;4;48;54;475;450;28;7;11;20519;3;18;451;20;8;12;20133;6;20;454;19;9;8;11256;3;19;480;14
04.03.19;16:40:00;1;521;4479;0;2;58;12103;4;94;361;17;3;5;8183;6;13;523;18;4;25;13033;3;26;200;18;5;183;37682;4;66;59;372;589;29;6;124;28763;4;62;67;475;450;28;7;41;20518;4;65;351;20;8;40;20132;4;70;359;19;9;3;11255;6;8;528;15
04.03.19;16:35:00;1;489;4434;0;2;65;12098;4;99;363;17;3;5;8183;6;10;529;18;4;34;13031;3;35;200;18;5;191;37667;4;68;64;372;589;29;6;130;28752;4;73;77;475;450;28;7;38;20515;4;61;378;20;8;44;20129;4;73;362;20;9;2;11255;6;8;536;15
04.03.19;16:30:00;1;544;4393;0;2;58;12092;4;89;359;17;3;0;8182;6;0;550;18;4;19;13028;3;20;200;18;5;176;37651;4;59;57;372;589;29;6;118;28742;4;53;56;475;450;28;7;15;20512;6;24;442;20;8;14;20125;6;22;445;20;9;7;11254;6;16;496;15
04.03.19;16:25:00;1;262;4353;0;2;51;12088;4;84;369;17;3;8;8182;3;18;502;18;4;25;13026;3;26;199;19;5;170;37636;4;53;55;372;589;29;6;115;28732;4;52;58;475;450;28;7;5;20510;6;9;479;20;8;10;20124;3;19;460;20;9;3;11254;6;6;531;15
04.03.19;16:20:00;1;212;4331;0;2;71;12083;4;103;361;17;3;11;8182;6;17;525;19;4;25;13024;3;26;198;19;5;202;37622;4;75;72;372;590;29;6;137;28722;4;77;78;475;450;28;7;15;20510;6;33;477;20;8;14;20123;6;29;481;20;9;2;11254;4;6;523;15
04.03.19;16:15:00;1;211;4313;0;2;97;12077;4;132;367;17;3;20;8181;4;33;521;19;4;54;13022;3;57;198;19;5;254;37605;4;104;98;372;589;29;6;174;28710;4;80;78;475;450;28;7;55;20509;4;102;468;20;8;66;20122;4;104;471;20;9;14;11253;3;22;527;15
04.03.19;16:10:00;1;212;4296;0;2;76;12069;4;111;364;17;3;7;8179;4;13;526;19;4;36;13018;3;37;197;19;5;223;37584;4;91;79;372;589;29;6;147;28696;4;68;66;475;450;28;7;53;20504;4;84;437;20;8;42;20116;4;90;434;20;9;5;11252;6;9;535;15
04.03.19;16:05:00;1;212;4278;0;2;109;12063;4;146;372;17;3;59;8178;4;98;451;19;4;62;13014;3;65;198;19;5;283;37565;4;118;110;372;589;29;6;189;28683;4;93;91;475;450;28;7;85;20499;4;119;456;20;8;84;20113;4;122;440;20;9;7;11252;6;12;554;16
04.03.19;16:00:00;1;238;4260;0;2;119;12054;4;155;369;17;3;64;8173;4;107;468;19;4;75;13009;3;78;199;19;5;296;37541;4;124;108;372;590;30;6;199;28667;4;98;102;475;450;28;7;90;20492;4;133;460;20;8;89;20106;4;129;467;20;9;21;11251;6;32;525;16
04.03.19;15:55:00;1;313;4240;0;2;80;12044;4;114;362;17;3;6;8168;6;11;539;19;4;49;13003;3;51;200;19;5;223;37517;4;87;82;372;589;30;6;152;28650;4;79;78;475;450;28;7;43;20485;4;93;448;20;8;63;20098;4;92;428;20;9;5;11250;6;11;547;16
04.03.19;15:50:00;1;315;4214;0;2;88;12037;4;122;364;17;3;9;8167;6;15;533;19;4;39;12999;3;40;200;20;5;237;37498;4;91;87;372;589;30;6;159;28638;4;90;87;475;450;29;7;55;20481;4;94;463;20;8;61;20093;4;100;416;20;9;0;11249;6;0;557;16
04.03.19;15:45:00;1;294;4187;0;2;66;12030;4;100;378;18;3;5;8166;6;11;535;19;4;31;12995;3;32;200;20;5;199;37479;4;76;67;372;589;30;6;134;28625;4;75;76;475;450;29;7;37;20476;4;70;426;20;8;43;20088;4;67;394;20;9;9;11249;3;17;517;16
04.03.19;15:40:00;1;272;4163;0;2;53;12024;4;86;366;18;3;5;8166;6;11;522;20;4;15;12993;3;16;199;20;5;171;37462;4;53;57;372;590;30;6;115;28614;4;55;59;475;450;29;7;12;20473;6;23;447;20;8;5;20084;6;12;478;20;9;5;11248;6;15;494;17
04.03.19;15:35:00;1;272;4141;0;2;22;12020;4;38;389;18;3;3;8166;6;8;511;20;4;5;12991;3;5;200;20;5;139;37448;4;39;38;372;589;30;6;95;28604;4;43;46;475;450;29;7;2;20472;6;7;470;21;8;4;20084;6;7;471;21;9;0;11248;6;5;521;17
04.03.19;15:30:00;1;274;4118;0;2;0;12018;6;0;417;18;3;3;8165;3;17;476;20;4;0;12991;3;0;200;21;5;126;37437;4;32;34;372;589;30;6;83;28596;4;34;37;475;450;29;7;1;20472;6;8;456;21;8;2;20083;6;7;458;21;9;1;11248;6;4;505;17
04.03.19;15:25:00;1;271;4095;0;2;43;12018;4;79;359;19;3;3;8165;6;9;517;20;4;6;12991;3;6;199;21;5;154;37426;4;44;48;372;589;30;6;103;28589;4;43;48;475;450;29;7;0;20472;6;0;489;22;8;5;20083;6;7;472;22;9;0;11248;6;5;518;17
04.03.19;15:20:00;1;258;4072;0;2;60;12014;4;95;364;19;3;12;8165;6;25;487;21;4;20;12990;3;20;198;21;5;188;37413;4;73;65;372;589;30;6;131;28580;4;52;59;475;450;29;7;37;20472;4;71;348;22;8;43;20083;4;72;358;22;9;0;11248;6;0;554;18
04.03.19;15:15:00;1;212;4051;0;2;92;12009;4;128;361;19;3;35;8164;6;61;480;21;4;51;12989;3;54;197;22;5;241;37397;4;96;91;372;589;31;6;167;28569;4;94;92;475;450;29;7;64;20469;4;102;394;22;8;67;20079;4;103;415;22;9;11;11248;3;19;516;18
04.03.19;15:10:00;1;211;4033;0;2;128;12002;4;165;356;19;3;73;8161;4;110;465;22;4;79;12984;3;82;199;22;5;310;37376;4;133;112;372;589;31;6;207;28555;4;100;106;475;450;29;7;100;20464;4;138;427;22;8;107;20074;4;142;424;22;9;12;11247;6;18;552;18
04.03.19;15:05:00;1;248;4016;0;2;151;11991;4;189;363;19;3;85;8155;4;124;482;22;4;104;12978;5;108;221;22;5;344;37350;4;151;135;372;589;31;6;233;28537;4;98;97;475;450;29;7;142;20455;4;175;430;22;8;138;20065;4;181;431;22;9;76;11246;4;105;475;19
04.03.19;15:00:00;1;251;3995;0;2;152;11978;4;190;368;20;3;84;8148;4;127;482;22;4;104;12969;5;108;221;23;5;344;37321;4;150;139;372;590;31;6;236;28518;4;150;151;475;450;29;7;142;20444;4;183;427;23;8;143;20054;4;184;440;23;9;75;11239;4;108;479;19
04.03.19;14:55:00;1;247;3974;0;2;175;11966;4;215;374;20;3;102;8141;4;143;485;22;4;128;12960;5;133;221;23;5;391;37292;4;179;158;372;589;31;6;269;28498;4;139;141;475;450;30;7;164;20432;4;202;432;23;8;161;20042;4;199;430;23;9;88;11233;4;115;469;19
04.03.19;14:50:00;1;209;3953;0;2;189;11951;4;227;368;20;3;108;8132;4;151;500;22;4;134;12950;5;139;220;23;5;406;37259;4;184;164;372;589;31;6;282;28475;4;121;113;475;450;30;7;178;20418;4;216;456;23;8;178;20028;4;212;461;23;9;97;11226;4;130;484;20
04.03.19;14:45:00;1;209;3936;0;2;182;11935;4;220;365;21;3;102;8123;4;144;499;22;4;128;12939;5;134;220;24;5;383;37225;4;176;155;372;589;32;6;265;28452;4;136;135;475;450;30;7;167;20403;4;203;453;23;8;168;20013;4;205;444;23;9;90;11218;4;120;483;20
04.03.19;14:40:00;1;209;3918;0;2;155;11920;4;194;368;21;3;85;8115;4;125;486;23;4;105;12928;5;110;215;24;5;348;37193;4;156;140;372;590;32;6;236;28430;4;106;111;475;450;30;7;136;20389;4;182;430;24;8;140;19999;4;180;424;24;9;74;11210;4;107;469;20
04.03.19;14:35:00;1;210;3900;0;2;168;11907;4;207;359;21;3;98;8108;4;138;483;23;4;119;12919;5;123;223;25;5;375;37164;4;165;155;372;590;32;6;256;28410;4;119;118;475;450;30;7;160;20378;4;195;424;24;8;157;19988;4;194;431;24;9;84;11204;4;113;470;21
04.03.19;14:30:00;1;210;3883;0;2;187;11893;4;227;366;22;3;107;8099;4;149;493;23;4;137;12909;5;143;218;25;5;412;37132;4;185;165;372;589;32;6;277;28388;4;147;145;475;450;30;7;175;20365;4;209;408;24;8;172;19975;4;208;416;24;9;92;11197;4;123;479;21
04.03.19;14:25:00;1;210;3865;0;2;246;11877;4;286;368;22;3;149;8090;4;191;497;24;4;194;12898;5;202;223;26;5;513;37097;4;241;205;387;596;33;6;344;28364;4;190;191;475;450;30;7;236;20350;4;278;452;25;8;239;19960;4;279;459;25;9;124;11189;4;159;506;21
04.03.19;14:20:00;1;210;3848;0;2;206;11857;4;250;373;22;3;122;8078;4;163;498;24;4;150;12881;5;156;221;26;5;427;37055;4;191;173;372;589;33;6;290;28336;4;128;125;475;450;31;7;187;20330;4;226;463;25;8;195;19941;4;231;456;25;9;105;11179;4;136;492;22
04.03.19;14:15:00;1;224;3830;0;2;193;11839;4;231;373;23;3;108;8068;4;151;504;24;4;141;12869;5;147;218;27;5;404;37020;4;181;163;372;589;33;6;277;28311;4;128;126;475;450;31;7;162;20314;4;207;448;25;8;164;19924;4;205;451;25;9;94;11170;4;121;471;22